| time (UTC) | temp F | wind direction | speed MPH | gust MPH | rain 1hr in | rain 24hr in | rain mn in | humidity % | barometer mb |
| 20260506161532 | 63 | 248 | 8.0 | 13.0 | 0.00 | 0.23 | 0.23 | 47 | 1007.8 |
| 20260506160034 | 62 | 264 | 5.0 | 12.0 | 0.00 | 0.23 | 0.23 | 45 | 1007.7 |
| 20260506154527 | 62 | 153 | 5.0 | 12.0 | 0.00 | 0.23 | 0.23 | 43 | 1007.8 |
| 20260506153026 | 62 | 214 | 8.0 | 16.0 | 0.01 | 0.23 | 0.23 | 40 | 1007.7 |
| 20260506151524 | 61 | 244 | 5.0 | 12.0 | 0.05 | 0.23 | 0.23 | 40 | 1008.1 |
| 20260506150022 | 60 | 204 | 6.0 | 10.0 | 0.06 | 0.23 | 0.23 | 40 | 1007.9 |
| 20260506144518 | 60 | 207 | 6.0 | 12.0 | 0.06 | 0.23 | 0.23 | 40 | 1008.1 |
| 20260506143023 | 60 | 210 | 2.0 | 10.0 | 0.07 | 0.22 | 0.22 | 40 | 1008.3 |
| 20260506141513 | 60 | 221 | 3.0 | 11.0 | 0.06 | 0.18 | 0.18 | 40 | 1008.4 |
| 20260506140017 | 60 | 217 | 2.0 | 7.0 | 0.08 | 0.17 | 0.17 | 41 | 1008.4 |
| 20260506134507 | 60 | 240 | 1.0 | 8.0 | 0.14 | 0.17 | 0.17 | 41 | 1008.5 |
| 20260506133005 | 60 | 248 | 2.0 | 8.0 | 0.14 | 0.15 | 0.15 | 42 | 1008.2 |
| 20260506131600 | 60 | 200 | 3.0 | 9.0 | 0.12 | 0.13 | 0.13 | 45 | 1008.6 |
| 20260506130120 | 60 | 217 | 3.0 | 9.0 | 0.08 | 0.09 | 0.09 | 50 | 1008.8 |
| 20260506124551 | 60 | 164 | 2.0 | 6.0 | 0.03 | 0.03 | 0.03 | 53 | 1008.9 |
| 20260506123048 | 61 | 256 | 0.0 | 4.0 | 0.01 | 0.01 | 0.01 | 56 | 1008.2 |
| 20260506121543 | 61 | 253 | 1.0 | 7.0 | 0.01 | 0.01 | 0.01 | 60 | 1008.2 |
| 20260506120038 | 61 | 210 | 1.0 | 7.0 | 0.01 | 0.01 | 0.01 | 61 | 1008.1 |
| 20260506114539 | 0 | 0.0 | 0.0 | 0.00 | 0.00 | 0.00 | 1008.5 | ||
| 20260506113027 | 0 | 0.0 | 0.0 | 0.00 | 0.00 | 0.00 | 1008.4 | ||
| 20260506111522 | 0 | 0.0 | 0.0 | 0.00 | 0.00 | 0.00 | 1008.1 | ||
| 20260506110017 | 0 | 0.0 | 0.0 | 0.00 | 0.00 | 0.00 | 1007.8 | ||
| 20260506104527 | 0 | 0.0 | 0.0 | 0.00 | 0.00 | 0.00 | 1007.8 | ||
| 20260506103007 | 0 | 0.0 | 0.0 | 0.00 | 0.00 | 0.00 | 1007.4 | ||
| 20260506101601 | 64 | 219 | 2.0 | 8.0 | 0.00 | 0.00 | 0.00 | 56 | 1007.6 |
| 20260506100057 | 65 | 222 | 2.0 | 8.0 | 0.00 | 0.00 | 0.00 | 55 | 1007.5 |
| 20260506094555 | 65 | 209 | 3.0 | 11.0 | 0.00 | 0.00 | 0.00 | 54 | 1007.5 |
| 20260506093051 | 65 | 204 | 2.0 | 10.0 | 0.00 | 0.00 | 0.00 | 54 | 1007.7 |
| 20260506091547 | 66 | 235 | 7.0 | 13.0 | 0.00 | 0.00 | 0.00 | 53 | 1007.6 |
| 20260506090047 | 66 | 249 | 6.0 | 14.0 | 0.00 | 0.00 | 0.00 | 53 | 1007.9 |
| 20260506084539 | 66 | 266 | 3.0 | 11.0 | 0.00 | 0.00 | 0.00 | 52 | 1008.1 |
| 20260506083041 | 66 | 200 | 2.0 | 17.0 | 0.00 | 0.00 | 0.00 | 52 | 1008.1 |
| 20260506081533 | 67 | 243 | 5.0 | 12.0 | 0.00 | 0.00 | 0.00 | 51 | 1008.0 |
| 20260506073020 | 67 | 266 | 2.0 | 12.0 | 0.00 | 0.00 | 0.00 | 49 | 1007.9 |
| 20260506071520 | 67 | 231 | 5.0 | 12.0 | 0.00 | 0.00 | 0.00 | 49 | 1007.9 |
| 20260506061601 | 68 | 150 | 1.0 | 13.0 | 0.00 | 0.00 | 0.00 | 46 | 1008.6 |
| 20260506044541 | 70 | 181 | 4.0 | 13.0 | 0.00 | 0.00 | 0.00 | 42 | 1009.1 |
| 20260506043048 | 70 | 224 | 2.0 | 10.0 | 0.00 | 0.00 | 0.00 | 41 | 1009.0 |
| 20260506041539 | 70 | 187 | 4.0 | 12.0 | 0.00 | 0.00 | 0.00 | 41 | 1008.9 |
| 20260506040044 | 70 | 261 | 2.0 | 13.0 | 0.00 | 0.00 | 0.00 | 41 | 1008.9 |
| 20260506034532 | 69 | 223 | 0.0 | 8.0 | 0.00 | 0.00 | 0.00 | 41 | 1008.9 |
| 20260506033029 | 70 | 235 | 1.0 | 7.0 | 0.00 | 0.00 | 0.00 | 40 | 1009.0 |
| 20260506031527 | 69 | 231 | 1.0 | 8.0 | 0.00 | 0.00 | 0.00 | 39 | 1009.0 |
| 20260506030025 | 70 | 226 | 0.0 | 7.0 | 0.00 | 0.00 | 0.00 | 38 | 1008.9 |
| 20260506024533 | 70 | 224 | 2.0 | 8.0 | 0.00 | 0.00 | 0.00 | 37 | 1009.1 |
| 20260506023022 | 70 | 231 | 2.0 | 5.0 | 0.00 | 0.00 | 0.00 | 35 | 1008.9 |
| 20260506021538 | 71 | 238 | 0.0 | 6.0 | 0.00 | 0.00 | 0.00 | 34 | 1009.0 |
| 20260506020018 | 71 | 224 | 2.0 | 7.0 | 0.00 | 0.00 | 0.00 | 33 | 1009.1 |
| 20260506014523 | 72 | 233 | 0.0 | 5.0 | 0.00 | 0.00 | 0.00 | 32 | 1008.9 |
| 20260506013014 | 73 | 186 | 2.0 | 7.0 | 0.00 | 0.00 | 0.00 | 29 | 1008.7 |
| 20260506011521 | 74 | 201 | 2.0 | 7.0 | 0.00 | 0.00 | 0.00 | 28 | 1008.6 |
| 20260506010012 | 74 | 219 | 3.0 | 12.0 | 0.00 | 0.00 | 0.00 | 27 | 1008.4 |
| 20260506004508 | 74 | 262 | 3.0 | 10.0 | 0.00 | 0.00 | 0.00 | 27 | 1008.2 |
| 20260506003007 | 75 | 254 | 3.0 | 7.0 | 0.00 | 0.00 | 0.00 | 26 | 1008.1 |
| 20260506001504 | 76 | 193 | 1.0 | 10.0 | 0.00 | 0.00 | 0.00 | 24 | 1007.8 |
| 20260506000003 | 76 | 251 | 3.0 | 9.0 | 0.00 | 0.00 | 0.00 | 23 | 1007.8 |
| 20260505234503 | 77 | 219 | 3.0 | 9.0 | 0.00 | 0.00 | 0.00 | 22 | 1007.6 |
| 20260505233059 | 78 | 238 | 1.0 | 12.0 | 0.00 | 0.00 | 0.00 | 20 | 1007.6 |
| 20260505231557 | 79 | 243 | 9.0 | 15.0 | 0.00 | 0.00 | 0.00 | 18 | 1007.7 |
| 20260505230055 | 80 | 272 | 9.0 | 16.0 | 0.00 | 0.00 | 0.00 | 16 | 1007.9 |
| 20260505224554 | 80 | 236 | 5.0 | 13.0 | 0.00 | 0.00 | 0.00 | 19 | 1007.7 |
| 20260505223104 | 81 | 180 | 4.0 | 14.0 | 0.00 | 0.00 | 0.00 | 18 | 1007.6 |
| 20260505221549 | 81 | 176 | 8.0 | 20.0 | 0.00 | 0.00 | 0.00 | 17 | 1007.7 |
| 20260505220148 | 81 | 246 | 12.0 | 20.0 | 0.00 | 0.00 | 0.00 | 16 | 1007.7 |
| 20260505214553 | 81 | 215 | 7.0 | 19.0 | 0.00 | 0.00 | 0.00 | 17 | 1007.7 |
| 20260505213043 | 82 | 233 | 7.0 | 16.0 | 0.00 | 0.00 | 0.00 | 18 | 1007.5 |
| 20260505211548 | 83 | 252 | 7.0 | 22.0 | 0.00 | 0.00 | 0.00 | 18 | 1007.4 |
| 20260505210038 | 83 | 238 | 7.0 | 19.0 | 0.00 | 0.00 | 0.00 | 18 | 1007.3 |
| 20260505204537 | 82 | 219 | 10.0 | 22.0 | 0.00 | 0.00 | 0.00 | 17 | 1007.5 |
| 20260505203046 | 82 | 240 | 12.0 | 21.0 | 0.00 | 0.00 | 0.00 | 15 | 1007.4 |
| 20260505201529 | 82 | 235 | 9.0 | 23.0 | 0.00 | 0.00 | 0.00 | 17 | 1007.5 |
| 20260505200025 | 82 | 229 | 9.0 | 20.0 | 0.00 | 0.00 | 0.00 | 16 | 1007.6 |
| 20260505194523 | 83 | 255 | 9.0 | 24.0 | 0.00 | 0.00 | 0.00 | 16 | 1007.7 |
| 20260505193020 | 83 | 249 | 8.0 | 24.0 | 0.00 | 0.00 | 0.00 | 15 | 1007.6 |
| 20260505191517 | 83 | 199 | 12.0 | 21.0 | 0.00 | 0.00 | 0.00 | 15 | 1008.0 |
| 20260505190014 | 82 | 187 | 12.0 | 22.0 | 0.00 | 0.00 | 0.00 | 16 | 1008.3 |
| 20260505184516 | 83 | 240 | 9.0 | 24.0 | 0.00 | 0.00 | 0.00 | 17 | 1008.4 |
| 20260505183005 | 82 | 237 | 10.0 | 20.0 | 0.00 | 0.00 | 0.00 | 19 | 1008.6 |
| 20260505181502 | 82 | 221 | 6.0 | 15.0 | 0.00 | 0.00 | 0.00 | 22 | 1008.8 |
| 20260505180109 | 82 | 215 | 9.0 | 19.0 | 0.00 | 0.00 | 0.00 | 22 | 1009.1 |
| 20260505174554 | 81 | 242 | 9.0 | 20.0 | 0.00 | 0.00 | 0.00 | 24 | 1009.1 |
| 20260505173052 | 81 | 257 | 8.0 | 17.0 | 0.00 | 0.00 | 0.00 | 25 | 1009.1 |
| 20260505171548 | 81 | 229 | 9.0 | 17.0 | 0.00 | 0.00 | 0.00 | 25 | 1009.3 |
| 20260505170045 | 80 | 217 | 4.0 | 15.0 | 0.00 | 0.00 | 0.00 | 26 | 1009.5 |
| 20260505164543 | 80 | 229 | 6.0 | 14.0 | 0.00 | 0.00 | 0.00 | 25 | 1009.7 |
| 20260505163039 | 80 | 281 | 6.0 | 14.0 | 0.00 | 0.00 | 0.00 | 27 | 1009.9 |